Flag for Germany Weather past 2 weeks in Oelde, North Rhine-Westphalia, Germany

Now
82 °F

Scattered clouds.


Feels Like: 82 °F
Forecast: 56 / 64 °F
Wind: 3 mph from Southwest

Location: Paderborn / Lippstadt

Current Time: Jul 7, 2015 at 5:36:44 PM

Latest Report: Jul 7, 2015 at 4:50 PM


Visibility: N/A

Pressure: 29.74 "Hg

Humidity: 42%

Dew point: 57 °F

Location of OeldeLocation

Historic Weather in Oelde — Graph

°F

Oelde temperature yesterday

Maximum temperature yesterday: 73 °F (at 4:50 PM)
Minimum temperature yesterday: 57 °F (at 3:50 AM)
Average temperature yesterday: 65 °F

Past Weeks' High & Low Weather Summary

 TemperatureHumidityPressure
High97 °F (Jul 4, 1:50 PM)100% (Jun 24, 3:50 AM)30.27 "Hg (Jun 24, 3:50 AM)
Low46 °F (Jun 23, 1:20 AM)23% (Jul 4, 2:50 PM)29.68 "Hg (Jun 22, 8:20 PM)
Average67 °F62%30.09 "Hg
* Reported Jun 22 4:20 PM — Jul 7 4:20 PM, Oelde, Weather by CustomWeather, © 2015

Note: Actual official high and low records may vary slightly from our data, if they occured in-between our weather recording intervals... More about our weather records

Advertising

Oelde weather history for previous 24 hours

 ConditionsComfort  
Time TempWeatherWind HumidityBarometerVisibility
4:20 PM
Tue, Jul 7
82 °FSunny.7 mph42%29.77 "Hg10 mi
3:50 PM82 °FSunny.7 mph42%29.77 "Hg10 mi
3:20 PM84 °FSunny.12 mph33%29.80 "Hg10 mi
2:50 PM84 °FSunny.14 mph31%29.80 "Hg10 mi
2:20 PM86 °FSunny.13 mph29%29.80 "Hg10 mi
1:50 PM86 °FPassing clouds.12 mph29%29.83 "HgN/A
1:20 PM86 °FSunny.14 mph27%29.86 "Hg10 mi
12:50 PM84 °FSunny.14 mph25%29.86 "Hg10 mi
12:20 PM82 °FPassing clouds.9 mph28%29.86 "HgN/A
11:50 AM82 °FPassing clouds.9 mph28%29.89 "HgN/A
11:20 AM81 °FPassing clouds.7 mph34%29.89 "HgN/A
10:50 AM79 °FPassing clouds.6 mph34%29.89 "HgN/A
10:20 AM79 °FSunny.9 mph37%29.92 "Hg10 mi
9:50 AM77 °FSunny.8 mph39%29.92 "Hg10 mi
9:20 AM75 °FPassing clouds.8 mph39%29.95 "HgN/A
8:50 AM72 °FPassing clouds.5 mph44%29.95 "HgN/A
8:20 AM70 °FSunny.2 mph50%29.95 "Hg10 mi
7:50 AM68 °FSunny.2 mph56%29.98 "Hg10 mi
7:20 AM64 °FSunny.5 mph68%29.98 "Hg10 mi
6:50 AM61 °FPassing clouds.3 mph72%29.98 "HgN/A
6:20 AM57 °FPassing clouds.3 mph77%29.98 "HgN/A
5:50 AM54 °FClear.3 mph88%30.01 "Hg10 mi
5:20 AM52 °FPassing clouds.5 mph94%30.01 "HgN/A
4:50 AM54 °FClear.3 mph88%30.01 "Hg10 mi
4:20 AM54 °FPassing clouds.3 mph88%30.01 "HgN/A
3:50 AM55 °FClear.6 mph82%30.04 "Hg10 mi
3:20 AM57 °FClear.7 mph77%30.04 "Hg10 mi
2:50 AM61 °FClear.7 mph68%30.04 "Hg10 mi
2:20 AM59 °FClear.8 mph72%30.07 "Hg10 mi
1:50 AM59 °FClear.6 mph72%30.07 "Hg10 mi
1:20 AM59 °FClear.7 mph72%30.07 "Hg10 mi
12:50 AM59 °FClear.7 mph72%30.07 "Hg10 mi
12:20 AM59 °FClear.8 mph72%30.07 "Hg10 mi
11:50 PM
Mon, Jul 6
59 °FClear.9 mph77%30.09 "Hg10 mi
11:20 PM59 °FClear.6 mph77%30.09 "Hg10 mi
10:50 PM59 °FClear.2 mph77%30.09 "Hg10 mi
10:20 PM63 °FSunny.1 mph59%30.09 "Hg10 mi
9:50 PM64 °FSunny.1 mph60%30.09 "Hg10 mi
9:20 PM68 °FSunny.1 mph49%30.09 "Hg10 mi
8:50 PM72 °FSunny.2 mph41%30.09 "Hg10 mi
8:20 PM72 °FSunny.3 mph41%30.09 "Hg10 mi
7:50 PM72 °FPassing clouds.6 mph38%30.12 "HgN/A
7:20 PM72 °FPassing clouds.6 mph38%30.12 "HgN/A
6:50 PM72 °FPassing clouds.6 mph41%30.12 "HgN/A
6:20 PM72 °FPassing clouds.7 mph41%30.12 "HgN/A
5:50 PM72 °FPassing clouds.7 mph41%30.12 "HgN/A
5:20 PM72 °FPassing clouds.7 mph41%30.12 "HgN/A
Weather by CustomWeather, © 2015

See weather overviewHow to use our weather pages